IRIDIUM 180 (43922 NORAD) Tracking and Keplerian Element Data

This shows tracking and keplerian element data for the satellite.

Feedback or suggestion? Click here.




ElementValue
Catalog43922
NameIRIDIUM 180
Epoch Orbit31756
Epoch Day34.84920311
Epoch Year2025
RAAN201.8243
Inclination86.3989
Eccentricity0.0001966
Argument of Perigee96.7042
Mean Anonmoly263.4378
Mean Motion14.342148
Decay Rate5.07E-06
L11 43922U 19002A 25034.84920311 .00000507 00000+0 17404-3 0 9994
L22 43922 86.3989 201.8243 0001966 96.7042 263.4378 14.34214800317567



Live tracking and technical data element details for IRIDIUM 180 (NORAD 43922). IRIDIUM 180 can be tracked NOW for your location showing map with azimuth and elevation plus other details from your city location.







IsCatalogInMostPopularTable: catalog: 43922, numindb: 569
Update: records affected: 1



GetName: 43922 IRIDIUM 180

Hit Count: updated at: Thu, 15 May 2025 19:21:17 GMT